Location: Marstown
(39.5056°N, 77.0820°W)
Time: 22:49:12
(UTC-05:00)

N. Korean satellite - Visible Passes

Search period start: 18 January 2019 00:00
Search period end: 28 January 2019 00:00
Orbit: 458 x 509 km, 97.2° (Epoch: 17 January)

Date Brightness Start Highest point End Pass type
(mag) Time Alt. Az. Time Alt. Az. Time Alt. Az.
18 Jan 9.7 05:30:04 10° NE 05:32:33 17° E 05:35:00 10° SE visible
18 Jan 6.6 17:36:48 10° SSE 17:40:25 90° SSE 17:44:08 10° NNW visible
19 Jan 6.6 06:37:48 10° N 06:41:28 59° WNW 06:45:04 10° SSW visible
19 Jan 10.2 18:48:15 10° WSW 18:49:29 11° W 18:50:44 10° WNW visible
20 Jan 7.1 06:13:08 10° NNE 06:16:51 63° E 06:20:27 10° S visible
20 Jan 9.4 18:21:41 10° SSW 18:24:38 23° W 18:27:38 10° NW visible
21 Jan 8.8 05:48:50 10° NE 05:52:07 29° E 05:55:19 10° SSE visible
21 Jan 7.8 17:56:21 10° S 17:59:52 47° W 18:03:29 10° NNW visible
22 Jan 9.9 05:25:11 10° ENE 05:27:17 15° E 05:29:22 10° SE visible
23 Jan 6.5 06:32:34 10° N 06:36:15 69° WNW 06:39:51 10° SSW visible
23 Jan 10.1 18:42:21 10° WSW 18:44:12 13° W 18:46:04 10° WNW visible
24 Jan 7.5 06:07:58 10° NNE 06:11:35 53° E 06:15:08 10° S visible
24 Jan 9.1 18:16:14 10° SSW 18:19:21 26° W 18:22:33 10° NW visible
25 Jan 9.1 05:43:45 10° NE 05:46:50 25° E 05:49:51 10° SSE visible
25 Jan 7.5 17:51:01 10° S 17:54:37 56° W 17:58:18 10° NNW visible
26 Jan 10.1 05:20:22 10° ENE 05:21:59 12° E 05:23:35 10° ESE visible
26 Jan 7.1 06:52:11 10° N 06:55:35 36° WNW 06:58:55 10° SW visible
27 Jan 6.5 06:27:19 10° N 06:31:00 81° WNW 06:34:35 10° SSW visible
27 Jan 10.0 18:36:38 10° SW 18:38:53 15° W 18:41:11 10° NW visible
